Location: Sungai Dangang
(2.7500°N, 113.8333°E)
Time: 22:02:48
(UTC+00:00)

CSL-04 Rocket - Pass Details

Date: 16 May 2021
Orbit: 807 x 859 km, 98.9° (Epoch: 15 June)

Event Time Altitude Azimuth Distance (km) Brightness Sun altitude
Exits shadow 12:19:38 68° 187° (S) 866 3.6 -26.8°
Maximum altitude 12:20:18 82° 257° (WSW) 818 3.5 -26.9°
Drops below altitude 10° 12:25:35 10° 345° (NNW) 2,392 6.5 -28.1°
Sets 12:27:55 0° 346° (NNW) 3,327 7.3 -28.7°
